OBJECT AC, 57192

Orbit data source: Space-Track

You're viewing an Uncataloged Satellite

Recently launched and/or uncataloged satellites may have evolving metadata. Metadata may include but not limited to: Owner, Maufacturer, Bus, Motor, and Mission.

OBJECT AC, 57192 is a satellite in SSO that was launched on Tue, 27 Jun 2023 UTC via a SOYUZ-2-1B launch vehicle from the Vostochny Cosmodrome (VOSTO). Unknown objects in Earth's orbit typically refer to objects detected orbiting the Earth but have not yet been identified or cataloged. These objects could be anything from previously untracked satellites, spent rocket stages, debris from satellite collisions, or even natural meteoroids temporarily captured by Earth's gravity.

Loading next visibility...
Identifier
57192, 2023-091AC
Orbit
SSO
Country
Flag of TBDTBD
Related business
Manufacturer
Sputniks
Mission
Operational Commercial Communications
Bus & Motor
CUBESAT 3U?, Unknown motor
Mass
3 kg wet, 3 kg dry
Launch date (UTC)
2023-06-27 (3 years ago)
Launch vehicle
SOYUZ-2-1B
Launch site
Vostochny Cosmodrome (VOSTO)
Object type
Unknown
Shape & HBR
Box, 0.2 m
Radar Cross Section
0.035 m², Medium (>0.1 m² and < 1m²)

Expand to show TLE details & history
Last TLE update: 13 hours ago

TLE from 13 hours ago
0 OBJECT AC
1 57192U 23091AC  26206.59837946  .00009479  00000-0  36432-3 0  9996
2 57192  97.5051 269.7912 0010162 338.4267  21.6542 15.26596825170144
Epoch: 2026-07-25T14:21Z
TLE epoch observation values (Epoch: 2026-07-25T14:21:39.985Z)
Latitude
-0°
Longitude
111.06624°
Altitude
482.608 km
Speed
7.628 km/s
True Right ascension
17h 59m 09s
True Declination
0° 00' 00"
Sunlit
Object was in full shadow at epoch
Visualization orbit readout
Latitude
Unknown
Longitude
Unknown
Altitude
Unknown
Speed
Unknown
Apparent Right ascension
Unknown
Apparent Declination
Unknown
Sunlit
N/A
Visualization observer readout
Local Sidereal Time
16:19:29
Azimuth
Unknown
Elevation
Unknown
Doppler factor
Unknown
Orbital elements
Apogee altitude
489.928 km
Perigee altitude
475.984 km
Semi-major axis
6,861.093 km
Eccentricity
0.00102
Inclination
97.5051°
RAAN
269.7912°
Arg. of periapsis
338.4267°
True anomaly
21.69722°
Mean anomaly
21.6542°
Eccentric anomaly
21.67571°
Mean motion
3.81903 °/min
Orbital period
94.26 mins
BSTAR
0.00036432
Loading maneuver chart data...
Computing Atmospheric mass density...
Loading historical data...
Loading historical data...
Loading historical data...
Loading historical data...
Loading historical data...
Loading historical data...
Loading historical data...

Documentation

Showing up to 5 results
|